Content
SEND FEEDBACK

Daily
Averages
Monthly
Summary
Mexico

PUEBLA - JARDINES DE SAN MANUEL, PUEBLA


Home > North America > Mexico > Puebla
Elevation: 6962 feet     Latitude: 19 00N     Longitude: 098 11W

WEATHER
 
SELECT A DAY
Number of Records: 125,466;   Date Range: 1/1/95 - 12/19/14
 
SHARE

PRINT THIS DATA

[ ← Previous Day ]
WEATHER ALMANAC - JUNE 21, 2013
[ Next Day → ]
[ °C ]   °F
Weather ElementAverageHighLow
Temperature59.4 °F68 °F (12:50 pm)55.4 °F (8:40 am)
Dewpoint55.7 °F59 °F (12:45 am)50 °F (12:50 pm)
Humidity87.8 %100 % (9:41 am)42 % (12:50 pm)
Barometer30.23 in30.38 in (10:43 am)29.84 in (3:45 am)
Wind Speed3.8 mph13.8 mph (3:58 pm)
Weather ElementAverage
Visibility5 mi
Wind DirectionSSE (142.8 °)

Weather ElementTotal
Precipitation---
Heating Degree Days3.3 (Base 65)
Growing Degree Days11.7 (Base 50)
Averaged from 35 records on June 21, 2013
WEATHER CONDITIONS BREAKOUT
WIND DIRECTION BREAKOUT
WEATHER BY HOUR - JUNE 21, 2013
[ °C ]   °F
Local TimeTemperatureDewpointHumidityBarometerVisibilityWind DirectionWind SpeedGust SpeedPrecipitationEventsConditions
12:43 AM57.2 °F55.4 °F94 %30.34 in4.0 miNW (310°)4.6 mphRainLight Rain
12:45 AM60.0 °F59.0 °F96 %29.86 in3.0 miEast (90°)2.2 mphOvercast
1:42 AM57.2 °F55.4 °F94 %30.33 in6.0 miWest (270°)4.6 mphRainLight Rain
2:50 AM57.2 °F55.4 °F94 %30.30 in7.0 miWest (260°)4.6 mphRainLight Rain
3:41 AM57.2 °F55.4 °F94 %30.29 in5.0 miCalmRainLight Rain
3:45 AM59.0 °F58.0 °F97 %29.84 in3.0 miCalmMostly Cloudy
4:43 AM57.2 °F55.4 °F94 %30.29 in4.0 miCalmRainLight Rain
5:58 AM57.2 °F55.4 °F94 %30.30 in4.0 miCalmRainLight Rain
6:43 AM57.2 °F55.4 °F94 %30.30 in3.0 miCalmRainLight Rain
6:45 AM58.0 °F57.0 °F96 %29.84 in3.0 miCalmRainLight Drizzle
7:40 AM57.2 °F55.4 °F94 %30.33 in3.0 miCalmOvercast
7:57 AM57.2 °F55.4 °F94 %30.33 in0.8 miCalmRainRain
8:40 AM55.4 °F53.6 °F94 %30.35 in0.8 miSE (140°)4.6 mphRainRain
9:41 AM55.4 °F55.4 °F100 %30.37 in3.0 miSouth (180°)3.5 mphRainLight Rain
9:50 AM59.0 °F57.0 °F92 %29.92 in3.0 miEast (90°)2.2 mphHaze
10:43 AM59.0 °F55.4 °F88 %30.38 in4.0 miSSW (200°)3.5 mphOvercast
11:44 AM60.8 °F55.4 °F82 %30.37 in6.0 miNNE (20°)3.5 mphOvercast
12:50 PM68.0 °F50.0 °F42 %29.91 in12.0 miEast (90°)4.5 mphMostly Cloudy
12:55 PM64.4 °F55.4 °F73 %30.36 in6.0 miNNE (30°)3.5 mphOvercast
1:42 PM64.4 °F53.6 °F68 %30.36 in6.0 miWest (270°)6.9 mphOvercast
2:46 PM68.0 °F57.2 °F68 %30.33 in6.0 miCalmOvercast
3:40 PM62.0 °F57.0 °F77 %29.86 in6.0 miSE (140°)2.2 mphRainLight Rain
3:44 PM66.2 °F55.4 °F68 %30.31 in6.0 miSSW (200°)9.2 mphOvercast
3:58 PM60.8 °F57.2 °F88 %30.32 in5.0 miEast (100°)13.8 mphThunderstormThunderstorm
4:15 PM57.2 °F55.4 °F94 %30.33 in4.0 miEast (80°)11.5 mphRain-ThunderstormThunderstorms and Rain
4:43 PM57.2 °F55.4 °F94 %30.33 in4.0 miESE (110°)10.4 mphRain-ThunderstormThunderstorms and Rain
5:50 PM59.0 °F55.4 °F88 %30.33 in5.0 miENE (70°)9.2 mphOvercast
6:40 PM61.0 °F58.0 °F86 %29.84 in12.0 miENE (70°)2.2 mphRainLight Drizzle
6:45 PM59.0 °F55.4 °F88 %30.33 in6.0 miNW (310°)4.6 mphOvercast
7:45 PM59.0 °F55.4 °F88 %30.33 in6.0 miNNW (330°)5.8 mphOvercast
8:45 PM59.0 °F55.4 °F88 %30.34 in6.0 miWNW (290°)3.5 mphOvercast
9:40 PM59.0 °F55.4 °F88 %30.34 in6.0 miNW (320°)3.5 mphOvercast
9:45 PM60.0 °F59.0 °F95 %29.85 in3.0 miCalmOvercast
10:45 PM57.2 °F55.4 °F94 %30.36 in6.0 miNW (320°)4.6 mphOvercast
11:40 PM57.2 °F55.4 °F94 %30.37 in6.0 miWest (280°)3.5 mphOvercast
Hourly data recorded from MMPB, located miles away from Puebla - Jardines de San Manuel, Puebla







STORIES FROM OUR PARTNERS